Home > Time Zones > World Clock > Weather > Russia > Ufa > Past weeks

Flag for Russia Weather past 2 weeks in Ufa, Russia

Now
36 °F

Mostly cloudy.


Feels Like: 27 °F
Forecast: 35 / 53 °F
Wind: 13 mph from Northwest

Location: Ufa

Current Time: Sep 18, 2014 at 6:48:22 AM

Latest Report: Sep 18, 2014 at 6:00 AM


Visibility: N/A

Pressure: 30.01 "Hg

Humidity: 93%

Dew point: 34 °F

Location of UfaLocation

Historic Weather in Ufa — Graph

°F

Ufa temperature yesterday

Maximum temperature yesterday: 45 °F (at 4:30 PM)
Minimum temperature yesterday: 37 °F (at 4:30 AM)
Average temperature yesterday: 41 °F

Past Weeks' High & Low Weather Summary

 TemperatureHumidityPressure
High72 °F (Sep 12, 4:30 PM)100% (Sep 3, 6:00 AM)30.42 "Hg (Sep 3, 6:00 AM)
Low32 °F (Sep 9, 7:00 AM)33% (Sep 13, 5:00 PM)29.77 "Hg (Sep 16, 4:00 PM)
Average52 °F75%30.09 "Hg
* Reported Sep 3 5:00 AM — Sep 18 5:30 AM, Ufa, Weather by CustomWeather, © 2014

Note: Actual official high and low records may vary slightly from our data, if they occured in-between our weather recording intervals... More about our weather records

Advertising

Ufa weather history for previous 24 hours

 ConditionsComfort  
Time TempWeatherWind HumidityBarometerVisibility
5:30 AM
Sep 18
37 °FMostly cloudy.10 mph87%30.01 "HgN/A
5:00 AM37 °FMostly cloudy.13 mph87%30.01 "HgN/A
4:30 AM37 °FMostly cloudy.13 mph87%30.01 "HgN/A
4:00 AM37 °FMostly cloudy.8 mph87%29.98 "HgN/A
3:30 AM37 °FMostly cloudy.13 mph87%29.98 "HgN/A
3:00 AM37 °FMostly cloudy.10 mph87%29.98 "HgN/A
2:30 AM39 °FPassing clouds.10 mph81%29.98 "HgN/A
2:00 AM39 °FPassing clouds.10 mph81%29.98 "HgN/A
1:30 AM39 °FPartly cloudy.10 mph81%29.98 "HgN/A
1:00 AM37 °FPartly cloudy.10 mph87%29.98 "HgN/A
12:30 AM37 °FPartly cloudy.13 mph87%29.98 "HgN/A
12:00 AM37 °FPassing clouds.10 mph87%29.98 "HgN/A
11:30 PM
Sep 17
39 °FPassing clouds.10 mph75%29.98 "HgN/A
11:00 PM39 °FPassing clouds.10 mph75%29.98 "HgN/A
10:30 PM39 °FPassing clouds.6 mph81%29.98 "HgN/A
10:00 PM39 °FPassing clouds.8 mph81%29.98 "HgN/A
9:30 PM39 °FPassing clouds.6 mph81%29.98 "HgN/A
9:00 PM41 °FPassing clouds.8 mph76%29.98 "HgN/A
8:30 PM41 °FPassing clouds.8 mph70%29.95 "HgN/A
8:00 PM43 °FPartly sunny.10 mph66%29.95 "HgN/A
7:30 PM43 °FPartly sunny.10 mph66%29.95 "HgN/A
7:00 PM43 °FPartly sunny.15 mph66%29.95 "HgN/A
6:30 PM45 °FPartly sunny.15 mph61%29.95 "HgN/A
6:00 PM43 °FPartly sunny.15 mph66%29.95 "HgN/A
5:30 PM43 °FPartly sunny.17 mph66%29.95 "HgN/A
5:00 PM43 °FPartly sunny.15 mph71%29.95 "HgN/A
4:30 PM45 °FPartly sunny.10 mph66%29.95 "HgN/A
4:00 PM43 °FOvercast.15 mph71%29.98 "HgN/A
3:30 PM43 °FOvercast.13 mph66%29.95 "HgN/A
3:00 PM43 °FOvercast.15 mph71%29.95 "HgN/A
2:30 PM41 °FOvercast.15 mph76%29.95 "HgN/A
2:00 PM41 °FOvercast.15 mph76%29.95 "HgN/A
1:30 PM41 °FOvercast.15 mph81%29.95 "HgN/A
1:00 PM41 °FOvercast.15 mph81%29.95 "HgN/A
12:30 PM41 °FOvercast.15 mph76%29.95 "HgN/A
12:00 PM41 °FOvercast.15 mph81%29.95 "HgN/A
11:30 AM41 °FOvercast.17 mph81%29.95 "HgN/A
11:00 AM41 °FOvercast.15 mph81%29.92 "HgN/A
10:30 AM41 °FOvercast.17 mph87%29.92 "HgN/A
10:00 AM39 °FLight rain. More clouds than sun.15 mph93%29.92 "HgN/A
9:30 AM39 °FOvercast.15 mph93%29.89 "HgN/A
9:00 AM39 °FOvercast.15 mph93%29.89 "HgN/A
8:30 AM39 °FOvercast.15 mph93%29.89 "HgN/A
8:00 AM39 °FOvercast.15 mph87%29.89 "HgN/A
7:30 AM39 °FOvercast.15 mph87%29.86 "HgN/A
7:00 AM39 °FOvercast.17 mph87%29.86 "HgN/A
6:30 AM39 °FOvercast.17 mph87%29.83 "HgN/A
6:00 AM39 °FLight rain. Overcast.20 mph87%29.83 "HgN/A
Weather by CustomWeather, © 2014

See weather overviewHow to use our weather pages